[[{"header":{"parameterUnit":"m.s-1","parameterCategory":1,"la1":30.2992,"la2":30.254,"lo1":-89.0895,"lo2":-89.0443,"dy":0.0025,"dx":0.0025,"nx":19,"ny":19,"refTime":"2026-05-15T21:00:00:Z","depth":0,"parameterNumber":2,"parameterNumberName":"U-component_of_WINDS"},"data":[0,0,0,-0.7364,-0.7363,-0.7301,-0.7301,-0.7235,-0.7234,0,0,0,0,0,0,0,0,0,0,0,-0.739,-0.739,-0.7365,-0.7363,-0.7301,-0.7301,-0.7235,-0.7234,0,0,0,0,0,0,0,0,0,0,0,-0.739,-0.739,-0.739,-0.7363,-0.7301,-0.7301,-0.7235,-0.7277,0,0,0,0,0,0,0,0,0,0,-0.7335,-0.7366,-0.739,-0.739,-0.7363,-0.7301,-0.7301,-0.7279,-0.7275,-0.7268,0,-0.7264,0,-0.7248,-0.7231,-0.723,0,0,0,-0.7358,-0.737,-0.7346,-0.739,-0.7362,-0.7301,-0.7327,-0.7276,-0.7271,-0.7263,-0.7263,-0.726,-0.7247,-0.723,-0.723,-0.7212,-0.7213,0,0,-0.7361,-0.7383,-0.735,-0.7344,-0.7353,-0.733,-0.7326,-0.7273,-0.7275,-0.7263,-0.7259,-0.7246,-0.723,-0.7229,-0.7212,-0.7212,0,0,0,-0.7375,-0.7386,-0.7363,-0.7347,-0.7334,-0.7328,-0.7323,-0.7278,-0.7269,-0.7258,-0.7245,-0.723,-0.7229,-0.7212,-0.7212,-0.7242,0,0,0,-0.7377,-0.7393,-0.7365,-0.7378,-0.7336,-0.7305,-0.7329,-0.7272,-0.7266,-0.7246,-0.7229,-0.7228,-0.7212,-0.7212,-0.724,-0.7252,0,0,0,-0.7392,-0.7395,-0.7389,-0.7379,-0.7353,-0.7305,-0.7293,-0.727,-0.7258,-0.723,-0.7228,-0.7212,-0.7212,-0.7239,-0.725,-0.7254,0,0,0,-0.7414,-0.7415,-0.739,-0.7386,-0.7354,-0.7324,-0.7293,-0.727,-0.725,-0.7229,-0.7212,-0.7212,-0.7239,-0.7249,-0.7253,-0.7261,-0.7266,0,0,-0.7428,-0.7418,-0.7414,-0.7389,-0.737,-0.7332,-0.7317,-0.7278,-0.7255,-0.7228,-0.7228,-0.7241,-0.725,-0.7254,-0.729,-0.7294,0,0,0,-0.7426,-0.7423,-0.7414,-0.7395,-0.7366,-0.7341,-0.7302,-0.7288,-0.7264,-0.7246,-0.7243,-0.7247,-0.7249,-0.7252,-0.7256,-0.7256,-0.7215,-0.7214,-0.7214,-0.7475,-0.7447,-0.7439,-0.7404,-0.7387,-0.7348,-0.7331,-0.7306,-0.7282,-0.7282,-0.7273,-0.7299,-0.7303,-0.7306,-0.7306,-0.7276,-0.7276,-0.7276,-0.7276,-0.7492,-0.7484,-0.7454,-0.7436,-0.7407,-0.7391,-0.7354,-0.7338,-0.732,-0.7302,-0.7302,-0.7285,-0.7311,-0.731,-0.7278,-0.7277,-0.7277,-0.7277,-0.7277,-0.7521,-0.7512,-0.7496,-0.7467,-0.7449,-0.7414,-0.7399,-0.7372,-0.7348,-0.7348,-0.7336,-0.7336,-0.7332,-0.7344,-0.7345,-0.7345,-0.7345,-0.7345,-0.7345,-0.7557,-0.7537,-0.7527,-0.7497,-0.7483,-0.7461,-0.7423,-0.7409,-0.7386,-0.7368,-0.7368,-0.7345,-0.7319,-0.7313,-0.7346,-0.7346,-0.7346,-0.7346,-0.7345,-0.7584,-0.7574,-0.7558,-0.7544,-0.7508,-0.7493,-0.746,-0.7433,-0.7418,-0.7411,-0.7389,-0.7374,-0.7362,-0.7359,-0.7353,-0.7394,-0.7394,-0.7394,-0.7394,-0.7608,-0.76,-0.7579,-0.7558,-0.7535,-0.7505,-0.7489,-0.7461,-0.743,-0.7419,-0.7409,-0.7401,-0.7399,-0.7387,-0.7384,-0.7378,-0.7425,-0.7425,-0.7425,-0.7623,-0.7612,-0.7603,-0.7572,-0.7543,-0.7518,-0.7503,-0.7482,-0.7445,-0.7426,-0.741,-0.7408,-0.7394,-0.7391,-0.737,-0.7365,-0.7354,0,0]},{"header":{"parameterUnit":"m.s-1","parameterCategory":1,"la1":30.2992,"la2":30.254,"lo1":-89.0895,"lo2":-89.0443,"dy":0.0025,"dx":0.0025,"nx":19,"ny":19,"refTime":"2026-05-15T21:00:00:Z","depth":0,"parameterNumber":3,"parameterNumberName":"V-component_of_WINDS"},"data":[0,0,0,4.3434,4.3434,4.3435,4.3435,4.3435,4.3435,0,0,0,0,0,0,0,0,0,0,0,4.3433,4.3433,4.3434,4.3434,4.3435,4.3435,4.3435,4.3435,0,0,0,0,0,0,0,0,0,0,0,4.3433,4.3433,4.3433,4.3434,4.3435,4.3435,4.3435,4.3434,0,0,0,0,0,0,0,0,0,0,4.3433,4.3433,4.3433,4.3433,4.3434,4.3435,4.3435,4.3434,4.3434,4.3434,0,4.3434,0,4.3435,4.3435,4.3435,0,0,0,4.3433,4.3433,4.3434,4.3433,4.3434,4.3435,4.3434,4.3434,4.3434,4.3434,4.3434,4.3434,4.3435,4.3435,4.3435,4.3435,4.3435,0,0,4.3433,4.3433,4.3433,4.3434,4.3434,4.3434,4.3434,4.3434,4.3434,4.3434,4.3434,4.3435,4.3435,4.3435,4.3435,4.3435,0,0,0,4.3433,4.3433,4.3434,4.3434,4.3434,4.3434,4.3434,4.3434,4.3435,4.3434,4.3435,4.3435,4.3435,4.3435,4.3435,4.3435,0,0,0,4.3433,4.3433,4.3434,4.3434,4.3434,4.3434,4.3434,4.3435,4.3435,4.3435,4.3435,4.3435,4.3435,4.3435,4.3435,4.3436,0,0,0,4.3433,4.3433,4.3434,4.3434,4.3434,4.3434,4.3435,4.3435,4.3435,4.3435,4.3435,4.3435,4.3435,4.3435,4.3436,4.3436,0,0,0,4.3433,4.3434,4.3434,4.3435,4.3434,4.3435,4.3435,4.3435,4.3435,4.3435,4.3435,4.3435,4.3435,4.3436,4.3436,4.3436,4.3436,0,0,4.3435,4.3434,4.3435,4.3435,4.3436,4.3435,4.3436,4.3435,4.3435,4.3434,4.3434,4.3435,4.3436,4.3436,4.3437,4.3437,0,0,0,4.3436,4.3436,4.3436,4.3437,4.3437,4.3436,4.3436,4.3436,4.3435,4.3435,4.3435,4.3436,4.3436,4.3436,4.3436,4.3436,4.3435,4.3435,4.3435,4.3439,4.3438,4.3439,4.3438,4.3438,4.3438,4.3437,4.3437,4.3436,4.3436,4.3436,4.3437,4.3437,4.3437,4.3437,4.3436,4.3436,4.3436,4.3436,4.3441,4.3442,4.344,4.3441,4.344,4.344,4.3438,4.3438,4.3437,4.3437,4.3437,4.3436,4.3437,4.3437,4.3436,4.3436,4.3436,4.3436,4.3436,4.3444,4.3444,4.3443,4.3443,4.3443,4.3441,4.3441,4.3439,4.3438,4.3438,4.3438,4.3438,4.3438,4.3438,4.3438,4.3438,4.3438,4.3438,4.3438,4.3446,4.3446,4.3446,4.3445,4.3445,4.3444,4.3442,4.3441,4.344,4.3439,4.3439,4.3438,4.3437,4.3437,4.3438,4.3438,4.3438,4.3438,4.3438,4.345,4.3449,4.3449,4.3449,4.3447,4.3446,4.3444,4.3442,4.3441,4.3441,4.3439,4.3439,4.3439,4.3439,4.3439,4.344,4.344,4.344,4.344,4.3453,4.3452,4.3452,4.3451,4.3449,4.3447,4.3446,4.3444,4.3442,4.3441,4.344,4.344,4.344,4.3439,4.3439,4.3439,4.344,4.344,4.344,4.3455,4.3454,4.3454,4.3452,4.345,4.3449,4.3447,4.3445,4.3442,4.344,4.344,4.344,4.3439,4.3439,4.3438,4.3438,4.3438,0,0]}]]